Regional Weather Roundup
Issued by NWS State College, PA

Home | Current Version | Previous Version | Text Only | Print | Product List | Glossary On
Versions: 1 2 3 4 5 6 7 8 9 10 11 12 13 14 15 16 17 18 19 20 21 22 23 24 25 26 27 28 29 30 31 32 33 34 35 36 37 38 39 40 41 42 43 44 45 46 47 48 49 50
000
ASUS41 KCTP 180210
RWRCTP

REGIONAL WEATHER ROUNDUP
NATIONAL WEATHER SERVICE STATE COLLEGE PA
1000 PM EDT WED SEP 17 2014

Note: "fair" indicates few or no clouds below 12,000 feet with no
significant weather and/or obstructions to visibility.

* = STATION THAT DOES NOT REPORT PRECIPITATION /E.G. RAIN...SNOW...ETC/
    THUNDER OR FOG.

PAZ002>004-007>009-013>016-020>023-029>032-180300-
WESTERN PENNSYLVANIA

CITY           SKY/WX    TMP DP  RH WIND       PRES   REMARKS
ERIE           PTCLDY    55  49  80 S6        30.00R
MEADVILLE      PTCLDY    53  47  79 CALM      30.01S
FRANKLIN*      PTCLDY    52  46  82 N3        30.02S
NEW CASTLE     FAIR      51  49  93 CALM      30.01R
BEAVER COUNTY  NOT AVBL
BUTLER*        PTCLDY    52  46  82 CALM      30.01S
PITTSBURGH INT MOCLDY    58  50  75 CALM      29.99R
PITTSBURGH     PTCLDY    60  47  61 N3        29.99R
INDIANA*       PTCLDY    52  50  93 CALM      30.03S
LATROBE        CLEAR     52  52 100 CALM      30.00R
WASHINGTON CO* PTCLDY    50  48  93 CALM      30.00R
$$

PAZ004>006-010>012-017>019-024>028-033>037-041-042-045-046-049>053-180300-
CENTRAL PENNSYLVANIA

CITY           SKY/WX    TMP DP  RH WIND       PRES   REMARKS
BRADFORD       CLEAR     45  42  89 CALM      30.01R
DUBOIS         MOCLDY    51  46  83 CALM      30.00R
CLEARFIELD     PTCLDY    50  47  89 N6        30.00S
JOHNSTOWN      PTCLDY    56  45  66 CALM      30.01R
ALTOONA        MOCLDY    54  51  90 CALM      30.00R
STATE COLLEGE  PTCLDY    55  51  86 CALM      29.99S
WILLIAMSPORT   CLEAR     54  49  83 CALM      29.97S
SELINSGROVE    CLEAR     50  48  93 CALM      29.98S
FT INDIANTOWN  CLEAR     52  52  99 CALM      29.99R
CAPITAL CITY   CLEAR     56  51  84 CALM      29.98R
HARRISBURG     PTCLDY    56  51  84 CALM      29.97S
YORK           CLEAR     49  46  90 CALM      29.98S
$$

PAZ038>040-043-044-047-048-054-055-060>062-067>071-180300-
EASTERN PENNSYLVANIA

CITY           SKY/WX    TMP DP  RH WIND       PRES   REMARKS
SCRANTON       CLEAR     54  43  66 E7        29.99S
MOUNT POCONO   CLEAR     45  32  60 CALM      30.01S
ALLENTOWN      CLEAR     55  47  74 CALM      29.99S
QUAKERTOWN*    CLEAR     50  48  93 CALM      30.00S
READING        CLEAR     57  49  74 CALM      29.98S
LANCASTER      CLEAR     55  48  77 NE3       29.99R
COATESVILLE    PTCLDY    55  54  94 CALM      30.00S
POTTSTOWN      CLEAR     54  51  90 CALM      30.00S
BLUE BELL      CLEAR     52  50  93 CALM      29.98S
DOYLESTOWN     CLEAR     54  50  86 CALM      29.98S
WILLOW GROVE   NOT AVBL
NORTH PHILA    CLEAR     64  52  64 SE3       30.00S
PHILADELPHIA   PTCLDY    64  52  64 S7        29.99R
$$


USA.gov is the U.S. government's official web portal to all federal, state and local government web resources and services.